Terminal Aerodrome Forecast
Issued by NWS Sioux Falls, SD

Home | Current Version | Previous Version | Text Only | Print | Product List | Glossary On
Versions: 1 2 3 4 5 6 7 8 9 10 11 12 13 14 15 16 17 18 19 20 21 22 23 24 25 26 27 28 29 30 31 32 33 34 35 36 37 38 39 40 41 42 43 44
000
FTUS43 KFSD 241120
TAFSUX
TAF
KSUX 241120Z 2412/2512 13010KT P6SM VCSH BKN050
     FM241600 16013G19KT P6SM SHRA VCTS BKN060CB
     FM242100 17012KT P6SM +SHRA VCTS OVC035CB
     FM250000 18007KT P6SM BKN100
     FM250500 25006KT P6SM BKN070
     FM250700 33007KT P6SM SKC=

USA.gov is the U.S. government's official web portal to all federal, state and local government web resources and services.